VA7IS Weather Reports


time (UTC)temp
F
wind
direction
speed
knots
gust
knots
rain 1hr
in
rain 24hr
in
rain mn
in
humidity
%
barometer
mb
20260503181505 72 164 1.7 5.2 0.00 0.00 0.00 47 1012.9
20260503181003 72 188 1.7 3.5 0.00 0.00 0.00 47 1013.0
20260503180503 73 188 1.7 4.3 0.00 0.00 0.00 47 1012.9
20260503180005 71 167 1.7 5.2 0.00 0.00 0.00 47 1013.0
20260503175504 71 171 1.7 5.2 0.00 0.00 0.00 48 1013.1
20260503175004 71 179 2.6 5.2 0.00 0.00 0.00 47 1013.1
20260503174504 71 181 1.7 5.2 0.00 0.00 0.00 46 1013.1
20260503174003 71 175 1.7 4.3 0.00 0.00 0.00 46 1013.1
20260503173503 70 171 1.7 5.2 0.00 0.00 0.00 44 1013.1
20260503173004 70 172 1.7 5.2 0.00 0.00 0.00 44 1013.1
20260503172504 70 168 1.7 4.3 0.00 0.00 0.00 45 1013.2
20260503172004 70 161 1.7 3.5 0.00 0.00 0.00 45 1013.2
20260503171503 69 151 1.7 3.5 0.00 0.00 0.00 46 1013.3
20260503171004 69 154 1.7 3.5 0.00 0.00 0.00 47 1013.3
20260503170503 69 156 1.7 3.5 0.00 0.00 0.00 47 1013.3
20260503150503 58 0 0.0 0.9 0.00 0.00 0.00 54 1014.0
20260503131003 55 315 0.9 1.7 0.00 0.00 0.00 56 1013.7
20260503130504 56 0 0.0 1.7 0.00 0.00 0.00 58 1013.7
20260503110503 57 315 0.9 0.9 0.00 0.00 0.00 58 1013.7
20260503081505 59 317 0.9 1.7 0.00 0.00 0.00 57 1013.5
20260503081004 60 317 0.9 1.7 0.00 0.00 0.00 57 1013.5
20260503080505 59 317 0.9 1.7 0.00 0.00 0.00 56 1013.5
20260503071506 60 317 0.9 1.7 0.00 0.00 0.00 57 1013.3
20260503071005 60 317 0.9 1.7 0.00 0.00 0.00 57 1013.3
20260503070505 60 317 0.9 2.6 0.00 0.00 0.00 57 1013.2
20260503055004 62 317 0.9 1.7 0.00 0.00 0.00 55 1012.9
20260503054505 62 317 0.9 2.6 0.00 0.00 0.00 55 1012.9
20260503054004 62 317 0.9 2.6 0.00 0.00 0.00 55 1012.9
20260503053504 62 316 0.9 1.7 0.00 0.00 0.00 54 1012.8
20260503053004 62 317 0.9 1.7 0.00 0.00 0.00 55 1012.9
20260503052004 62 326 0.9 2.6 0.00 0.00 0.00 56 1012.8
20260503051505 62 335 0.9 2.6 0.00 0.00 0.00 56 1012.8
20260503051004 62 338 0.9 1.7 0.00 0.00 0.00 56 1012.8
20260503050504 62 338 0.9 1.7 0.00 0.00 0.00 56 1012.8
20260503050005 62 338 0.9 1.7 0.00 0.00 0.00 56 1012.7
20260503045004 62 338 0.9 1.7 0.00 0.00 0.00 56 1012.6
20260503044505 63 338 0.9 2.6 0.00 0.00 0.00 56 1012.7
20260503044005 63 338 0.9 2.6 0.00 0.00 0.00 56 1012.7
20260503043504 63 338 0.9 1.7 0.00 0.00 0.00 56 1012.7
20260503043004 63 338 0.9 1.7 0.00 0.00 0.00 56 1012.6
20260503042504 63 338 0.9 1.7 0.00 0.00 0.00 56 1012.6
20260503042004 63 351 0.9 1.7 0.00 0.00 0.00 56 1012.6
20260503041505 63 4 0.9 2.6 0.00 0.00 0.00 56 1012.6
20260503041004 64 6 0.9 2.6 0.00 0.00 0.00 56 1012.6
20260503040004 64 0 0.0 0.0 0.00 0.00 0.00 56 1012.5
20260503035504 64 0 0.0 0.0 0.00 0.00 0.00 56 1012.5
20260503035004 64 0 0.0 0.0 0.00 0.00 0.00 56 1012.4
20260503034505 64 0 0.0 0.0 0.00 0.00 0.00 56 1012.4
20260503033005 65 0 0.0 0.0 0.00 0.00 0.00 56 1012.3
20260503032504 65 0 0.0 0.0 0.00 0.00 0.00 56 1012.3
20260503031504 66 0 0.0 0.0 0.00 0.00 0.00 56 1012.2
20260503030504 66 0 0.0 0.0 0.00 0.00 0.00 56 1012.2
20260503030005 67 0 0.0 0.0 0.00 0.00 0.00 55 1012.1
20260503025504 67 0 0.0 0.0 0.00 0.00 0.00 56 1012.1
20260503025004 67 0 0.0 0.0 0.00 0.00 0.00 55 1012.1
20260503024505 68 0 0.0 0.0 0.00 0.00 0.00 55 1012.1
20260503024004 68 0 0.0 0.9 0.00 0.00 0.00 55 1012.0
20260503023005 69 97 0.9 1.7 0.00 0.00 0.00 55 1012.1
20260503022504 69 97 0.9 1.7 0.00 0.00 0.00 55 1012.1
20260503022004 69 0 0.0 1.7 0.00 0.00 0.00 55 1012.1
20260503021504 70 0 0.0 0.0 0.00 0.00 0.00 55 1012.1
20260503021005 70 0 0.0 0.0 0.00 0.00 0.00 55 1012.1
20260503020005 71 0 0.0 0.0 0.00 0.00 0.00 54 1012.2
20260503015504 71 0 0.0 0.0 0.00 0.00 0.00 54 1012.2
20260503015004 71 0 0.0 0.0 0.00 0.00 0.00 53 1012.2
20260503014505 72 0 0.0 0.0 0.00 0.00 0.00 53 1012.3
20260503014005 72 0 0.0 0.0 0.00 0.00 0.00 52 1012.3
20260503013504 73 0 0.0 0.0 0.00 0.00 0.00 52 1012.3
20260503013005 73 0 0.0 0.0 0.00 0.00 0.00 52 1012.3
20260503012505 73 0 0.0 0.0 0.00 0.00 0.00 52 1012.4
20260503012004 73 0 0.0 0.0 0.00 0.00 0.00 52 1012.4
20260503011506 73 0 0.0 0.0 0.00 0.00 0.00 52 1012.4
20260503011004 73 0 0.0 0.0 0.00 0.00 0.00 52 1012.4
20260503010004 73 0 0.0 0.0 0.00 0.00 0.00 52 1012.5
20260503005504 73 0 0.0 0.0 0.00 0.00 0.00 53 1012.5
20260503005004 73 0 0.0 0.0 0.00 0.00 0.00 53 1012.5
20260503003504 73 113 0.9 1.7 0.00 0.00 0.00 51 1012.6
20260503002504 74 114 0.9 1.7 0.00 0.00 0.00 51 1012.6
20260503002004 74 118 0.9 1.7 0.00 0.00 0.00 50 1012.7
20260503001504 74 127 0.9 2.6 0.00 0.00 0.00 50 1012.7
20260503000005 74 195 1.7 4.3 0.00 0.00 0.00 51 1012.8
20260502235504 74 138 1.7 4.3 0.00 0.00 0.00 49 1012.9
20260502235004 75 116 1.7 3.5 0.00 0.00 0.00 48 1012.9
20260502234004 76 131 0.9 2.6 0.00 0.00 0.00 48 1013.0
20260502233504 75 155 0.9 4.3 0.00 0.00 0.00 47 1013.1
20260502232504 74 159 0.9 3.5 0.00 0.00 0.00 48 1013.2
20260502232005 74 172 0.9 3.5 0.00 0.00 0.00 48 1013.2
20260502231505 76 218 1.7 4.3 0.00 0.00 0.00 47 1013.2
20260502230504 74 177 1.7 4.3 0.00 0.00 0.00 48 1013.3
20260502230004 75 154 1.7 4.3 0.00 0.00 0.00 48 1013.3
20260502224005 74 162 1.7 6.1 0.00 0.00 0.00 49 1013.7
20260502223505 74 154 1.7 4.3 0.00 0.00 0.00 50 1013.7
20260502223005 73 152 1.7 6.1 0.00 0.00 0.00 50 1013.7
20260502222505 73 158 1.7 6.1 0.00 0.00 0.00 50 1014.0
20260502221504 72 143 2.6 7.8 0.00 0.00 0.00 50 1014.1
20260502221004 72 172 2.6 7.8 0.00 0.00 0.00 51 1014.1
20260502220005 75 188 1.7 5.2 0.00 0.00 0.00 48 1014.2
20260502215505 73 235 1.7 6.1 0.00 0.00 0.00 50 1014.3
20260502215004 73 230 1.7 6.1 0.00 0.00 0.00 50 1014.2
20260502214504 72 189 2.6 7.0 0.00 0.00 0.00 51 1014.4
20260502214004 71 193 2.6 7.0 0.00 0.00 0.00 52 1014.5
20260502213504 72 220 1.7 7.0 0.00 0.00 0.00 51 1014.5
20260502213005 73 248 2.6 7.0 0.00 0.00 0.00 50 1014.6
20260502212505 72 223 2.6 7.0 0.00 0.00 0.00 51 1014.7
20260502212005 73 201 2.6 9.6 0.00 0.00 0.00 50 1014.6
20260502211505 72 201 2.6 9.6 0.00 0.00 0.00 52 1014.7
20260502211004 73 214 2.6 7.0 0.00 0.00 0.00 51 1014.7
20260502210504 73 203 2.6 7.8 0.00 0.00 0.00 51 1014.7
20260502205505 73 194 2.6 7.0 0.00 0.00 0.00 50 1014.8
20260502205005 73 194 2.6 7.0 0.00 0.00 0.00 49 1014.8
20260502204504 72 186 3.5 7.8 0.00 0.00 0.00 49 1014.9
20260502204004 72 190 3.5 7.8 0.00 0.00 0.00 48 1014.9
20260502203504 72 210 2.6 7.8 0.00 0.00 0.00 47 1015.0
20260502203004 73 225 2.6 7.0 0.00 0.00 0.00 47 1015.0
20260502202504 73 220 2.6 7.0 0.00 0.00 0.00 49 1015.1
20260502202004 73 202 2.6 7.0 0.00 0.00 0.00 47 1015.2
20260502200504 73 184 2.6 7.0 0.00 0.00 0.00 45 1015.3
20260502200005 72 188 2.6 7.0 0.00 0.00 0.00 43 1015.4
20260502195504 73 206 2.6 7.0 0.00 0.00 0.00 44 1015.4
20260502195004 72 203 2.6 7.0 0.00 0.00 0.00 43 1015.6
20260502194505 71 191 3.5 7.8 0.00 0.00 0.00 44 1015.6
20260502194004 71 194 2.6 7.8 0.00 0.00 0.00 47 1015.6
20260502193504 71 176 2.6 7.0 0.00 0.00 0.00 48 1015.7
20260502192505 72 212 1.7 8.7 0.00 0.00 0.00 48 1015.7
20260502192005 72 249 1.7 8.7 0.00 0.00 0.00 47 1015.7
20260502191505 72 240 0.9 3.5 0.00 0.00 0.00 49 1015.7
20260502191005 71 208 2.6 8.7 0.00 0.00 0.00 49 1015.8
20260502190504 69 201 2.6 8.7 0.00 0.00 0.00 51 1015.8
20260502190004 69 208 2.6 7.8 0.00 0.00 0.00 49 1015.8
20260502185504 70 174 2.6 7.8 0.00 0.00 0.00 49 1015.9
20260502185004 69 176 2.6 7.0 0.00 0.00 0.00 52 1015.8
20260502183505 70 172 1.7 7.8 0.00 0.00 0.00 52 1015.8
20260502182504 69 154 1.7 4.3 0.00 0.00 0.00 53 1015.8
20260502182004 69 157 1.7 6.1 0.00 0.00 0.00 53 1015.8